Location: Newark
(47.5833°N, 8.1500°E)
Time: 03:18:03
(UTC+00:00)

Vanguard 1 - Pass Details

Date: 02 November 2020
Orbit: 650 x 3833 km, 34.2° (Epoch: 26 November)

Event Time Altitude Azimuth Distance (km) Brightness Sun altitude
Rises 08:40:28 0° 196° (SSW) 6,332 14.7 19.0°
Reaches altitude 10° 08:45:16 10° 185° (S) 5,757 14.8 19.5°
Maximum altitude 08:59:44 27° 136° (SE) 5,312 16.1 20.9°
Drops below altitude 10° 09:16:50 10° 89° (E) 6,911 14.8 22.5°
Sets 09:23:17 0° 79° (E) 7,788 14.9 23.0°
